DELTA 1 DEB, 13532

Orbit data source: Space-Track

DELTA 1 DEB, 13532 is space debris in LEO originally from a launch on Thu, 29 Jul 1976 UTC launched from the Air Force Western Test Range (AFWTR). Debris objects in space refer to the collection of defunct objects orbiting the Earth. Examples of debris include non-operational satellites, rocket bodies, and fragments generated from explosions, collisions, or faulty payload assembly.

Loading next visibility...
Identifier
13532, 1976-077EE
Orbit
LEO
Country
Flag of USUS
Related business
Manufacturer
Unknown
Mission
Spacecraft
Bus & Motor
Unknown
Mass
Unknown
Launch date (UTC)
1976-07-29 (50 years ago)
Launch vehicle
Unknown
Launch site
Air Force Western Test Range (AFWTR)
Object type
Payload
Rocket body
Debris
Shape & HBR
Unknown shape, 0.1 m
Radar Cross Section
Small (<0.1 m²)

Expand to show TLE details & history
Last TLE update: 11 hours ago

TLE from 11 hours ago
0 DELTA 1 DEB
1 13532U 76077EE  26072.78258781  .00000018  00000-0  67824-3 0  9993
2 13532 102.2580  15.3556 0284973 160.2102 229.1355 11.94077494950269
Epoch: 2026-03-13T18:46Z
TLE epoch observation values (Epoch: 2026-03-13T18:46:55.586Z)
Latitude
26.3037°
Longitude
-83.92557°
Altitude
1,864.741 km
Speed
6.891 km/s
True Right ascension
00h 36m 52s
True Declination
26° 11' 08"
Sunlit
Object was in daylight at epoch
Visualization orbit readout
Latitude
Unknown
Longitude
Unknown
Altitude
Unknown
Speed
Unknown
Apparent Right ascension
Unknown
Apparent Declination
Unknown
Sunlit
N/A
Visualization observer readout
Local Sidereal Time
09:54:15
Azimuth
Unknown
Elevation
Unknown
Doppler factor
Unknown
Orbital elements
Apogee altitude
1,935.485 km
Perigee altitude
1,474.782 km
Semi-major axis
8,083.271 km
Eccentricity
0.0285
Inclination
102.258°
RAAN
15.3556°
Arg. of periapsis
160.2102°
True anomaly
226.72291°
Mean anomaly
229.1355°
Eccentric anomaly
227.92357°
Mean motion
2.9865 °/min
Orbital period
120.54 mins
BSTAR
0.00067824
Loading maneuver chart data...
Computing Atmospheric mass density...
Loading historical data...
Loading historical data...
Loading historical data...
Loading historical data...
Loading historical data...
Loading historical data...
Loading historical data...

Documentation

Showing up to 5 results
|